Aérodrome :
LOGIN :

S'inscrire | Disclaimer

   EN    FR    IT 

 










Légende :    VFR   VFR Marginal   IFR   IFR Intensif   IFR Très Intensif
Visi : 
Plafond : 
>= 8 km
>= 3000ft
5 à 8 km
1000 à 3000 ft
1500m à 5 km
500 à 1000 ft
800 à 1500m
200 à 500 ft
< 800m
< 200 ft
Symboles :   Orages  Brouillard  Fortes neiges  Fortes précipitations  Vent > 20 kt
SIGMETs :   Divers  Orages  Givrage  Turbulence  Onde Orograph.  Cendres Volcan.







- Altitude de l'aérodrome : -11 ft
- Code IATA : AMS


EHAM - Amsterdam Schiphol

DERNIER METAR :
  • 172255Z 19003KT CAVOK 15/13 Q1017 NOSIG

METARs EXPIRÉS :
  • 172225Z 25003KT CAVOK 16/13 Q1017 NOSIG
  • 172155Z 27004KT CAVOK 16/14 Q1017 NOSIG
  • 172125Z 27004KT CAVOK 16/13 Q1017 NOSIG
  • 172055Z 27005KT CAVOK 16/14 Q1017 NOSIG
  • 172025Z 29005KT 250V320 CAVOK 17/14 Q1017 NOSIG

TAF TAF EHAM
Valide du 17 à 18h jusqu'au 19 à 00h UTC


171713Z 1718/1824 27012KT CAVOK
BECMG 1718/1721 22005KT
BECMG 1811/1814 31009KT SCT035
BECMG 1818/1821 35004KT
Pas de NOTAMs connus pour ce terrain.



MET'MAP, la Météo Aéronautique d'un coup d'oeil ! - Copyright ORBIFLY Décembre 2007 - Disclaimer

ORBIFLY MET'MAP TEAM :

Programmation & Développement : Alexandra Zaïnal
Conception & Développement : Baudouin d'Aumeries
Co-Programmation & Développement : Marc-Olivier Méhu
Soutien technique & logistique : Manuel Goepfert

Contact : metmap@orbifly.com




SOURCES & CREDITS :

   NOAA